Location: Albuquerque Trailhead
(34.7934°N, 106.3736°W)
Time: 04:16:41
(UTC+00:00)

Cosmos 1536 Rocket - Pass Details

Date: 20 June 2021
Orbit: 604 x 633 km, 82.5° (Epoch: 29 July)

Event Time Altitude Azimuth Distance (km) Brightness Sun altitude
Exits shadow 04:17:01 37° 104° (ESE) 977 4.1 -19.2°
Maximum altitude 04:17:24 38° 92° (E) 964 4.2 -19.2°
Drops below altitude 10° 04:21:31 10° 24° (NNE) 2,011 6.5 -19.8°
Sets 04:23:52 0° 16° (NNE) 2,919 7.5 -20.1°
